Columbia Owens, SC

7:20 AM EDT on September 16, 2019 (GMT -0400)
Columbia Owens Downtown

Weather History for KCUB - August, 2019

Change the Weather History Date:

Tuesday, August 20, 2019

  Actual Average Record
Temperature  
Mean Temperature 84 °F 81 °F  
Max Temperature 89 °F 90 °F 99 °F (2007)
Min Temperature 78 °F 71 °F 71 °F (2004)
Degree Days  
Heating Degree Days 0 0  
Month to date heating degree days 0 0  
Since 1 June heating degree days 0 0  
Since 1 July heating degree days 0 0  
Cooling Degree Days 19 16  
Month to date cooling degree days 397 335  
Year to date cooling degree days 1956 1651  
Since 1 June cooling degree days 1408 1315  
Growing Degree Days 33 (Base 50)    
Moisture  
Dew Point 72 °F    
Average Humidity 73    
Maximum Humidity 85    
Minimum Humidity 59    
Precipitation  
Precipitation 0.01 in 0.15 in 2.50 in (2006)
Month to date precipitation 0.37 3.35  
Year to date precipitation 22.08 30.26  
Sea Level Pressure  
Sea Level Pressure 30.11 in    
Wind  
Wind Speed 6 mph (South)    
Max Wind Speed 15 mph    
Max Gust Speed 19 mph    
Visibility 10 miles    
Events      
T = Trace of Precipitation, MM = Missing Value Source: NWS Daily Summary

Daily Weather History Graph

Daily Weather History Graph

Search for Another Location

Airport or City:

Astronomy

Aug. 20, 2019 Rise Set
Actual Time 6:49 AM EDT 8:05 PM EDT
Civil Twilight 6:22 AM EDT 8:31 PM EDT
Nautical Twilight 5:51 AM EDT 9:02 PM EDT
Astronomical Twilight 5:19 AM EDT 9:34 PM EDT
Moon 11:06 PM EDT (8/20) 11:13 AM EDT (8/20)
Length of Visible Light 14h 08m
Length of Day
13h 16m
Waning Gibbous, 78% of the Moon is Illuminated
Aug 20
Waning Gibbous
Aug 23
Last Quarter
Aug 30
New
Sep 5
First Quarter
Sep 14
Full

Hourly Weather History & Observations

Time (EDT) Temp. Heat Index Dew Point Humidity Pressure Visibility Wind Dir Wind Speed Gust Speed Precip Events Conditions
12:53 AM 79.0 °F - 73.0 °F 82% 30.09 in 10.0 mi South 4.6 mph - N/A   Clear
1:53 AM 79.0 °F - 73.0 °F 82% 30.08 in 10.0 mi SSE 5.8 mph - N/A   Clear
2:53 AM 78.1 °F - 73.0 °F 84% 30.08 in 10.0 mi South 3.5 mph - N/A   Clear
3:53 AM 78.1 °F - 73.0 °F 84% 30.09 in 10.0 mi Calm Calm - N/A   Scattered Clouds
4:04 AM 78.1 °F - 73.0 °F 84% 30.10 in 10.0 mi WSW 3.5 mph - N/A   Mostly Cloudy
4:53 AM 78.1 °F - 73.0 °F 84% 30.10 in 10.0 mi South 4.6 mph - N/A   Overcast
6:00 AM 78.1 °F - 73.0 °F 84% 30.11 in 10.0 mi Calm Calm - N/A   Scattered Clouds
6:53 AM 78.1 °F - 73.0 °F 84% 30.11 in 10.0 mi Calm Calm - N/A   Clear
7:53 AM 78.1 °F - 73.9 °F 87% 30.13 in 10.0 mi SSE 3.5 mph - N/A   Clear
8:53 AM 80.1 °F 84.2 °F 73.0 °F 79% 30.13 in 10.0 mi South 5.8 mph - N/A   Scattered Clouds
10:53 AM 82.0 °F 87.4 °F 73.0 °F 74% 30.14 in 10.0 mi Variable 6.9 mph - 0.00 in   Scattered Clouds
11:42 AM 82.9 °F 88.0 °F 72.0 °F 69% 30.14 in 10.0 mi South 8.1 mph - N/A   Mostly Cloudy
11:51 AM 84.2 °F 89.6 °F 71.6 °F 66% 30.14 in 10.0 mi South 10.4 mph - N/A   Scattered Clouds
11:53 AM 82.9 °F 87.5 °F 71.1 °F 67% 30.14 in 10.0 mi SSW 10.4 mph - N/A   Scattered Clouds
12:53 PM 84.0 °F 89.0 °F 71.1 °F 65% 30.14 in 10.0 mi South 9.2 mph - N/A   Scattered Clouds
1:51 PM 84.2 °F 89.6 °F 71.6 °F 66% 30.14 in 10.0 mi SSW 8.1 mph - N/A   Mostly Cloudy
1:53 PM 84.9 °F 90.7 °F 72.0 °F 65% 30.13 in 10.0 mi SSW 11.5 mph - N/A   Mostly Cloudy
2:10 PM 86.0 °F 91.5 °F 71.1 °F 61% 30.14 in 10.0 mi SSW 9.2 mph - N/A   Scattered Clouds
2:53 PM 87.1 °F 92.8 °F 71.1 °F 59% 30.12 in 10.0 mi South 6.9 mph - N/A   Mostly Cloudy
3:53 PM 87.1 °F 92.8 °F 71.1 °F 59% 30.09 in 10.0 mi South 11.5 mph 18.4 mph N/A   Scattered Clouds
4:53 PM 84.9 °F 90.1 °F 71.1 °F 63% 30.09 in 10.0 mi SW 5.8 mph - 0.00 in   Scattered Clouds
5:53 PM 88.0 °F 94.7 °F 72.0 °F 59% 30.06 in 10.0 mi South 8.1 mph - N/A   Clear
6:53 PM 86.0 °F 92.2 °F 72.0 °F 63% 30.07 in 10.0 mi SW 5.8 mph - N/A   Clear
7:53 PM 81.0 °F 87.3 °F 75.9 °F 85% 30.07 in 10.0 mi Calm Calm - 0.01 in   Scattered Clouds
8:53 PM 82.0 °F 87.9 °F 73.9 °F 76% 30.08 in 10.0 mi SW 3.5 mph - N/A   Mostly Cloudy
9:53 PM 82.0 °F 86.7 °F 72.0 °F 71% 30.09 in 10.0 mi South 4.6 mph - N/A   Clear
10:53 PM 81.0 °F 85.2 °F 72.0 °F 74% 30.10 in 10.0 mi South 6.9 mph - N/A   Scattered Clouds
11:53 PM 80.1 °F 83.8 °F 72.0 °F 76% 30.09 in 10.0 mi South 8.1 mph - N/A   Mostly Cloudy